| time (UTC) | temp F | wind direction | speed MPH | gust MPH | rain 1hr in | rain 24hr in | rain mn in | humidity % | barometer mb |
| 20260504060122 | 58 | 145 | 0.0 | 0.0 | 0.00 | 0.12 | 0.12 | 85 | 1011.8 |
| 20260504044612 | 59 | 118 | 0.0 | 0.0 | 0.00 | 0.12 | 0.12 | 84 | 1011.1 |
| 20260504043110 | 59 | 130 | 0.0 | 0.0 | 0.00 | 0.12 | 0.12 | 84 | 1011.3 |
| 20260504041608 | 59 | 165 | 0.0 | 1.0 | 0.00 | 0.12 | 0.12 | 83 | 1011.1 |
| 20260504040108 | 59 | 152 | 0.0 | 0.0 | 0.00 | 0.12 | 0.12 | 83 | 1010.9 |
| 20260504034606 | 60 | 220 | 0.0 | 0.0 | 0.00 | 0.12 | 0.12 | 82 | 1010.9 |
| 20260504033104 | 60 | 218 | 0.0 | 0.0 | 0.00 | 0.12 | 0.12 | 82 | 1010.7 |
| 20260504032257 | 60 | 77 | 0.0 | 0.0 | 0.00 | 0.12 | 0.12 | 82 | 1010.5 |
| 20260504024601 | 61 | 113 | 0.0 | 0.0 | 0.00 | 0.12 | 0.12 | 81 | 1009.9 |
| 20260504023056 | 61 | 116 | 0.0 | 0.0 | 0.00 | 0.12 | 0.12 | 81 | 1010.0 |
| 20260504021556 | 61 | 117 | 0.0 | 0.0 | 0.00 | 0.12 | 0.12 | 80 | 1010.2 |
| 20260504020055 | 61 | 108 | 0.0 | 1.0 | 0.00 | 0.12 | 0.12 | 79 | 1010.4 |
| 20260504014555 | 61 | 127 | 0.0 | 1.0 | 0.00 | 0.12 | 0.12 | 81 | 1010.2 |
| 20260504013056 | 61 | 241 | 0.0 | 1.0 | 0.00 | 0.12 | 0.12 | 79 | 1010.4 |
| 20260504011555 | 61 | 236 | 0.0 | 0.0 | 0.01 | 0.12 | 0.12 | 79 | 1010.3 |
| 20260504010758 | 61 | 117 | 0.0 | 0.0 | 0.12 | 0.12 | 0.12 | 78 | 1009.8 |
| 20260504004555 | 62 | 165 | 0.0 | 0.0 | 0.12 | 0.12 | 0.12 | 76 | 1010.2 |
| 20260504003055 | 63 | 68 | 0.0 | 2.0 | 0.12 | 0.12 | 0.12 | 70 | 1010.5 |
| 20260504001555 | 66 | 93 | 4.0 | 24.0 | 0.11 | 0.11 | 0.11 | 61 | 1010.3 |
| 20260504000055 | 78 | 60 | 3.0 | 19.0 | 0.00 | 0.00 | 0.00 | 37 | 1010.0 |
| 20260503234555 | 83 | 21 | 3.0 | 30.0 | 0.00 | 0.00 | 0.00 | 24 | 1007.5 |
| 20260503233057 | 84 | 214 | 0.0 | 1.0 | 0.00 | 0.00 | 0.00 | 24 | 1006.9 |
| 20260503231555 | 85 | 304 | 0.0 | 7.0 | 0.00 | 0.00 | 0.00 | 25 | 1006.7 |
| 20260503230055 | 85 | 262 | 0.0 | 2.0 | 0.00 | 0.00 | 0.00 | 24 | 1006.7 |
| 20260503224555 | 84 | 281 | 0.0 | 2.0 | 0.00 | 0.00 | 0.00 | 26 | 1006.9 |
| 20260503223050 | 84 | 320 | 0.0 | 3.0 | 0.00 | 0.00 | 0.00 | 28 | 1007.3 |
| 20260503221549 | 84 | 246 | 0.0 | 4.0 | 0.00 | 0.00 | 0.00 | 30 | 1007.5 |
| 20260503220049 | 83 | 330 | 0.0 | 4.0 | 0.00 | 0.00 | 0.00 | 30 | 1007.5 |
| 20260503214549 | 82 | 235 | 0.0 | 0.0 | 0.00 | 0.00 | 0.00 | 30 | 1007.9 |
| 20260503213045 | 82 | 194 | 0.0 | 1.0 | 0.00 | 0.00 | 0.00 | 30 | 1008.3 |
| 20260503211545 | 81 | 247 | 0.0 | 2.0 | 0.00 | 0.00 | 0.00 | 32 | 1008.4 |
| 20260503210745 | 80 | 241 | 0.0 | 3.0 | 0.00 | 0.00 | 0.00 | 34 | 1008.6 |
| 20260503204542 | 79 | 337 | 0.0 | 2.0 | 0.00 | 0.00 | 0.00 | 36 | 1008.6 |
| 20260503203042 | 78 | 249 | 0.0 | 2.0 | 0.00 | 0.00 | 0.00 | 39 | 1009.0 |
| 20260503201543 | 76 | 285 | 0.0 | 0.0 | 0.00 | 0.00 | 0.00 | 40 | 1009.1 |
| 20260503200747 | 76 | 181 | 0.0 | 2.0 | 0.00 | 0.00 | 0.00 | 42 | 1009.5 |
| 20260503195251 | 76 | 294 | 0.0 | 0.0 | 0.00 | 0.00 | 0.00 | 41 | 1009.6 |
| 20260503193041 | 74 | 8 | 0.0 | 0.0 | 0.00 | 0.00 | 0.00 | 42 | 1009.8 |
| 20260503191539 | 73 | 252 | 0.0 | 2.0 | 0.00 | 0.00 | 0.00 | 43 | 1010.2 |
| 20260503190742 | 73 | 299 | 0.0 | 1.0 | 0.00 | 0.00 | 0.00 | 46 | 1010.4 |
| 20260503184537 | 71 | 263 | 0.0 | 1.0 | 0.00 | 0.00 | 0.00 | 49 | 1010.6 |
| 20260503183036 | 70 | 280 | 0.0 | 0.0 | 0.00 | 0.00 | 0.00 | 52 | 1010.8 |
| 20260503181536 | 68 | 268 | 0.0 | 0.0 | 0.00 | 0.00 | 0.00 | 56 | 1011.0 |
| 20260503180035 | 67 | 256 | 0.0 | 1.0 | 0.00 | 0.00 | 0.00 | 58 | 1011.3 |
| 20260503174533 | 64 | 274 | 0.0 | 2.0 | 0.00 | 0.00 | 0.00 | 62 | 1011.4 |
| 20260503173722 | 63 | 274 | 0.0 | 2.0 | 0.00 | 0.00 | 0.00 | 64 | 1011.6 |
| 20260503171532 | 63 | 254 | 0.0 | 1.0 | 0.00 | 0.00 | 0.00 | 66 | 1011.7 |
| 20260503081502 | 58 | 183 | 0.0 | 0.0 | 0.00 | 0.00 | 0.00 | 73 | 1011.3 |
| 20260503071459 | 59 | 183 | 0.0 | 0.0 | 0.00 | 0.00 | 0.00 | 70 | 1011.4 |